Weather in Timiryazevskoe

Russia / Tomsk District     56°28′42″N   84°53′05″E
temp.,
°C
wind,
m/s
gust,
m/s
humid.,
%
clouds,
%
prec.,
mm/h
press.,
hPa
HPBL,
m
21 april, wed
wed2101:00−7s2787100 0.1 1022204
04:00−6ssw3793100 0.1 1021483
07:00−5s3891100 0.3 1021524
10:00−3s4684100 0.3 1022808
13:00−1s3477100 0.6 10221069
16:000s2268100 0.4 10241067
19:000ene2275100 0.7 1026534
22:00−2ene2595100 0.5 1030320
22 april, thu
thu2201:00−6ne27926 0.6 1032115
04:00−7nne28935 0.0 1035138
07:00−6nne28915 0.0 1038206
10:00−1nne36725 0.0 1040773
13:00+1nne4570100 0.1 10411127
16:00+2ne4567100 0.3 10421355
19:00+1nne367548 0.5 1044676
22:00−3nne11945 0.0 104617
23 april, fri
fri2301:00−4nne24945 0.0 104669
04:00−4ne26945 0.0 1047124
07:00−3ne26925 0.0 1047161
10:00+2ne35725 0.0 1047711
13:00+4ne355775 0.0 10461397
16:00+5ne355580 0.0 10441507
19:00+4ne357047 0.1 1044244
22:00−1ne28885 0.0 1044150
24 april, sat
sat2401:00−2ne26925 0.0 1043130
04:00−2ne27915 0.0 1041150
07:00−2nne388624 0.0 1040249
10:00+3nne467087 0.0 1038654
13:00+5nne4559100 0.0 10361160
16:00+6nne4558100 0.0 10341471
19:00+5nne267399 0.0 1033230
22:00+1n228768 0.0 103345
25 april, sun
sun2501:000n229196 0.0 103325
04:00−1n119282 0.0 103213
07:000nnw128931 0.0 103350
10:00+5n126997 0.0 1032460
13:00+7nw2260100 0.0 10311380
16:00+7wnw1263100 0.1 10301006
19:00+7w1271100 0.1 1030288
22:00+4nne1181100 0.0 103010